Helicity
323 337 324 321 335 360 344 244 200 233 213 189 208 244 284 300 284 285 307 288 310 318
180 182 219 225 251 271 268 325 276 215 205 208 206 232 259 287 277 284 278 257 265 305
151 173 177 178 167 136 150 139 197 270 170 114 151 187 231 227 233 253 265 270 245 257
120 143 173 206 215 236 129 140 129 60 101 132 128 159 181 191 189 205 228 263 269 273
325 185 128 143 171 225 244 274 367 220 22 115 99 115 167 177 214 248 250 259 266 255
641 512 375 299 214 99 86 297 23 214 283 135 -24 110 75 167 193 227 244 259 280 296
242 336 348 358 336 316 228 135 65 82 174 197 125 141 41 99 160 175 196 233 250 263
136 118 115 128 205 191 184 201 163 111 56 76 115 130 142 141 137 176 190 201 194 219
-16 34 73 73 83 105 132 123 104 90 60 97 78 78 74 91 135 135 129 116 122 154
-81 -50 -37 -23 -3 79 70 93 100 97 60 42 17 15 42 67 90 110 107 80 88 105
-49 -55 -32 -28 -36 -27 2 45 47 67 69 27 15 -4 -1 42 66 68 73 77 93 94
-35 -43 -39 -16 5 -4 -23 -16 -23 1 44 60 69 24 23 42 56 70 89 99 115 110
-56 -55 -54 -45 -11 3 19 -5 -39 -34 -1 12 41 36 18 44 85 73 73 71 57 67
5 -50 -78 -67 -49 -28 -3 9 25 11 -17 -3 39 58 59 83 95 111 100 83 67 49
Wind_Speed
72 76 82 78 74 69 66 65 63 62 65 66 65 62 59 58 57 55 53 51 50 51
83 86 86 90 85 83 80 71 64 62 64 68 70 69 69 69 66 60 58 56 56 56
74 80 82 85 93 92 92 89 81 68 63 63 67 66 65 68 65 62 64 64 67 66
68 73 77 80 82 86 87 99 92 78 68 66 68 67 69 68 68 69 68 67 70 73
47 58 68 73 72 69 78 87 80 80 80 76 70 77 78 78 75 71 72 71 73 77
45 44 43 43 49 57 63 71 64 68 73 74 74 89 81 85 80 72 70 69 72 74
51 50 50 49 47 50 54 58 56 60 70 90 97 85 89 87 76 68 73 66 73 78
63 59 58 60 60 56 54 55 54 49 43 38 40 44 59 67 75 68 74 73 75 73
72 71 71 71 69 69 68 63 61 59 56 54 50 50 50 52 55 63 72 80 76 72
81 81 81 82 80 78 78 76 75 72 66 62 58 57 63 65 65 65 70 76 73 74
93 93 91 93 91 88 85 85 82 80 75 72 70 66 67 68 66 69 70 76 73 75
96 99 96 98 98 97 95 97 94 90 90 86 85 78 71 67 70 73 75 80 79 77
104 105 105 105 104 102 100 103 100 102 98 91 89 84 81 76 73 78 82 82 83 80
102 107 109 110 107 107 108 108 107 106 107 104 99 96 85 82 81 83 85 86 89 85
Wind_Direction
251 253 256 256 258 257 256 258 259 254 256 258 261 262 265 268 270 272 274 275 278 283
259 259 260 259 260 260 261 261 260 260 259 262 264 266 268 270 273 275 277 279 282 284
263 262 263 263 261 261 262 262 264 261 261 262 265 266 267 270 273 275 279 283 285 286
271 266 264 265 264 266 265 260 260 260 265 265 268 270 269 270 274 277 281 284 285 286
301 284 274 270 271 270 266 262 258 260 263 269 272 273 273 274 275 277 281 284 286 287
321 313 308 300 290 286 281 276 291 265 268 270 273 282 274 276 278 280 281 285 287 289
319 312 311 309 307 304 298 294 296 292 282 273 273 277 273 275 280 284 284 287 288 289
309 310 311 306 304 307 310 309 308 308 300 288 290 286 283 283 282 287 289 290 290 290
304 304 302 303 303 300 298 303 303 301 299 302 299 295 292 290 292 294 294 291 293 292
301 298 299 298 296 297 297 297 297 298 297 296 297 295 292 290 293 294 293 292 294 293
301 297 295 293 292 292 294 295 295 294 294 292 292 295 294 294 293 292 291 289 294 297
300 297 297 295 293 291 291 288 288 290 291 291 290 292 293 293 293 291 292 291 294 298
297 296 296 293 291 290 289 287 286 286 286 288 287 285 284 290 293 294 293 294 294 298
307 297 292 291 291 289 287 286 286 285 284 285 285 287 289 287 290 291 293 294 295 296